CAPE
0 0 0 0 0 0 0 0 0 0 0 0 0 0 0 0 0 0 0 0 0 0
0 0 0 0 0 0 0 0 0 0 0 0 0 0 0 0 0 0 0 0 0 0
0 0 0 0 0 0 0 0 0 0 0 0 0 0 0 0 0 0 0 0 0 0
0 0 0 0 0 0 0 0 0 0 0 0 0 0 0 0 0 0 0 0 0 0
0 0 0 0 0 0 0 0 0 0 0 0 0 0 0 0 0 0 0 0 0 0
0 0 0 0 0 0 0 0 0 0 0 0 0 0 0 0 0 0 0 0 0 0
0 0 0 0 0 0 0 0 0 0 0 0 0 0 0 0 0 0 0 0 0 0
0 0 0 0 0 0 0 0 0 0 0 0 0 0 0 0 0 0 0 0 0 0
0 0 0 0 0 0 0 0 0 0 0 0 0 1 0 0 0 0 0 0 0 0
0 0 0 0 0 0 0 0 0 0 0 0 0 1 3 3 0 0 0 0 0 0
0 0 0 0 0 0 0 0 0 0 0 0 0 1 5 7 0 0 0 0 0 0
0 0 0 0 0 0 0 0 0 0 0 0 0 1 2 2 0 0 0 0 0 0
0 0 0 0 0 0 0 0 0 0 0 0 0 0 2 0 0 0 0 0 0 2
0 0 0 0 0 0 0 0 0 0 0 0 0 0 1 9 0 0 0 0 0 0
CIN
-0 -0 -0 -0 -0 -0 -0 -0 -0 -0 -0 -0 -0 -0 -0 -0 -0 -0 -0 -0 -0 -0
-0 -0 -0 -0 -0 -0 -0 -0 -0 -0 -0 -0 -0 -0 -0 -0 -0 -0 -0 -0 -0 -0
-0 -0 -0 -0 -0 -0 -0 -0 -0 -0 -0 -0 -0 -0 -0 -0 -0 -0 -0 -0 -0 -0
-0 -0 -0 -0 -0 -0 -0 -0 -0 -0 -0 -0 -0 -0 -0 -0 -0 -0 -0 -0 -0 -0
-0 -0 -0 -0 -0 -0 -0 -0 -0 -0 -0 -0 -0 -0 -0 -0 -0 -0 -0 -0 -0 -0
-0 -0 -0 -0 -0 -0 -0 -0 -0 -0 -0 -0 -0 -0 -0 -0 -0 -0 -0 -0 -0 -0
-0 -0 -0 -0 -0 -0 -0 -0 -0 -0 -0 -0 -0 -0 -0 -0 -0 -0 -0 -0 -0 -0
-0 -0 -0 -0 -0 -0 -0 -0 -0 -0 -0 -0 -0 -0 -0 -0 -0 -0 -0 -0 -0 -0
-0 -0 -0 -0 -0 -0 -0 -0 -0 -0 -0 -0 -0 -0 -0 -0 -0 -0 -0 -0 -0 -0
-0 -0 -0 -0 -0 -0 -0 -0 -0 -0 -0 -0 -0 -0 -0 -0 -0 -0 -0 -0 -0 -0
-0 -0 -0 -0 -0 -0 -0 -0 -0 -0 -0 -0 -0 -0 -0 -0 -0 -0 -0 -0 -0 -0
-0 -0 -0 -0 -0 -0 -0 -0 -0 -0 -0 -0 -0 -0 -0 -0 -0 -0 -0 -0 -0 -0
-0 -0 -0 -0 -0 -0 -0 -0 -0 -0 -0 -0 -0 -0 -0 -0 -0 -0 -0 -0 -0 -0
-0 -0 -0 -0 -0 -0 -0 -0 -0 -0 -0 -0 -0 -0 -0 -0 -0 -0 -0 -0 -0 -0
Wind_Speed
17 18 20 20 21 22 23 23 22 22 21 21 21 22 21 22 22 21 22 22 23 22
16 17 18 19 20 21 22 23 22 22 22 22 22 22 22 23 23 22 22 23 23 23
14 15 16 17 19 20 21 21 21 21 21 21 21 21 21 23 22 23 24 23 23 24
16 16 16 17 17 17 17 18 19 20 21 21 21 20 21 22 22 23 23 23 26 25
18 18 19 19 18 17 18 17 18 18 18 19 19 19 20 21 22 26 28 28 27 27
20 21 21 20 19 18 17 17 17 17 18 18 19 19 21 22 25 26 24 24 25 26
21 20 20 19 19 18 17 16 16 16 16 17 19 21 24 26 26 27 26 24 23 23
18 17 16 17 17 16 16 15 15 15 17 18 21 24 24 23 23 23 23 22 22 22
16 16 16 16 16 16 16 15 14 16 18 22 21 21 20 20 23 24 25 25 23 23
17 16 16 16 16 16 16 15 17 20 19 20 21 20 20 21 22 23 24 24 24 25
18 17 18 18 18 17 17 17 17 18 19 20 22 23 24 23 21 22 22 23 25 25
18 17 17 17 17 17 17 18 19 20 20 21 22 22 24 25 23 23 23 23 22 22
18 17 16 16 16 17 17 18 19 21 21 22 23 22 23 21 21 22 22 21 20 21
18 17 17 17 17 17 18 18 18 19 20 20 21 21 22 20 19 20 20 20 20 21
Wind_Direction
263 263 263 262 261 261 260 261 259 260 260 261 263 268 269 275 277 276 280 282 283 286
270 269 268 268 267 266 265 262 261 261 261 262 264 267 268 273 276 278 280 283 283 286
277 279 279 277 274 271 268 264 260 260 261 263 265 266 269 271 276 276 280 282 281 284
282 284 284 283 281 278 274 268 262 261 262 263 264 267 270 273 274 276 278 279 283 284
287 288 288 287 285 282 279 275 270 266 265 266 267 269 270 273 278 278 280 280 282 283
289 289 289 289 287 286 283 280 275 269 266 267 270 272 277 278 280 280 279 280 281 283
294 295 294 293 292 290 288 283 279 275 271 271 274 279 280 282 281 281 281 281 282 283
307 308 306 303 300 298 294 290 284 279 278 280 282 284 284 284 283 281 282 284 285 287
316 313 310 309 306 303 299 295 291 287 286 286 288 289 286 285 283 284 283 282 284 287
316 317 318 313 311 307 304 301 295 293 291 288 289 288 287 286 285 283 283 283 283 285
327 324 320 315 315 312 309 304 299 295 292 289 288 287 288 285 282 283 283 283 283 284
335 332 329 324 319 315 310 305 300 295 292 290 290 289 288 287 285 282 284 284 283 284
339 339 337 332 324 318 313 307 301 297 294 292 291 291 289 290 287 283 284 286 285 286
335 336 334 329 323 320 317 313 308 304 301 297 295 293 291 289 287 285 284 285 286 289